Regional Weather Roundup
Issued by NWS Cleveland, OH

Home | Current Version | Previous Version | Text Only | Print | Product List | Glossary Off
Versions: 1 2 3 4 5 6 7 8 9 10 11 12 13 14 15 16 17 18 19 20 21 22 23 24 25 26 27 28 29 30 31 32 33 34 35 36 37 38 39 40 41 42 43 44 45 46 47 48 49 50

000
ASUS41 KCLE 040310
RWRCLE
OHIO REGIONAL WEATHER ROUNDUP
NATIONAL WEATHER SERVICE CLEVELAND, OH
1100 PM EDT FRI JUL 03 2015

NOTE: "FAIR" INDICATES FEW OR NO CLOUDS BELOW 12,000 FEET WITH NO
SIGNIFICANT WEATHER AND/OR OBSTRUCTIONS TO VISIBILITY.

OHZ001>008-015>018-024>027-034-035-043-044-040400-
   NORTHWEST OHIO

CITY           SKY/WX    TMP DP  RH WIND       PRES   REMARKS
DEFIANCE       CLEAR     62  56  80 CALM      29.93R
FINDLAY        CLEAR     64  53  67 NE6       29.92R
TOLEDO EXPRESS CLEAR     57  53  86 CALM      29.93R
TOLEDO EXEC    CLEAR     61  52  72 CALM      29.94R
LIMA           CLEAR     63  56  78 NE3       29.93R
$$

OHZ009>014-019>023-028>033-038-089-040400-
   NORTHEAST OHIO

CITY           SKY/WX    TMP DP  RH WIND       PRES   REMARKS
CLE-HOPKINS    MOCLDY    65  53  65 N5        29.92F
CLE-LAKEFRONT  MOCLDY    67  54  63 NE5       29.90S
CUY CO. ARPT   MOCLDY    64  54  68 E6        29.92S
LORAIN-ELYRIA  PTCLDY    62  56  80 CALM      29.91F
ASHTABULA      CLOUDY    62  51  67 NE3       29.92F
AKRON-CANTON   CLOUDY    68  57  68 N8        29.90S
WOOSTER        PTCLDY    63  56  78 N6        29.91S
MANSFIELD      CLEAR     62  58  86 CALM      29.92R
YOUNGSTOWN     CLOUDY    66  56  70 E6        29.91S
$$

OHZ042-051>053-060>062-070>072-077>081-040400-
  SOUTHWEST OHIO

CITY           SKY/WX    TMP DP  RH WIND       PRES   REMARKS
CINC-COVINGTON CLOUDY    71  62  73 NE7       29.90R
CINC-LUNKEN    CLOUDY    69  64  84 CALM      29.90R
HAMILTON       MOCLDY    65  64  97 CALM      29.91R
DAYTON         MOCLDY    69  65  86 E3        29.92R
WRIGHT-PAT AFB CLEAR     67  63  86 CALM      29.91R
DAYTON GENERAL PTCLDY    65  62  90 E3        29.90R
WILMINGTON     CLOUDY    65  62  90 CALM      29.91R
$$

OHZ036-037-039>041-045>050-054>059-063>069-073>076-082>088-040400-
  CENTRAL AND SOUTHEAST OHIO

CITY           SKY/WX    TMP DP  RH WIND       PRES   REMARKS
COLUMBUS       MOCLDY    66  64  93 NW3       29.89R
OSU AIRPORT    CLOUDY    69  64  84 CALM      29.90R
BOLTON FIELD   MOCLDY    64  64 100 CALM      29.91R FOG
RICKENBACK AFB MOCLDY    64  64  97 CALM      29.90R FOG
NEWARK         CLOUDY    64  63  96 W5        29.90R FOG
MARION         PTCLDY    63  57  81 N7        29.92R
LANCASTER      MOCLDY    63  61  93 CALM      29.90R FOG
ZANESVILLE     NOT AVBL
NEW PHILLY     MOCLDY    66  64  93 CALM      29.89S
$$


USA.gov is the U.S. government's official web portal to all federal, state and local government web resources and services.